Lancaster, CA

5:27 AM PDT on May 26, 2017 (GMT -0700)
Gen Fox

Weather History for KWJF - April, 2014

Change the Weather History Date:

Tuesday, April 1, 2014

  Actual Average Record
Temperature  
Mean Temperature 48 °F 56 °F  
Max Temperature 56 °F 70 °F 93 °F (1966)
Min Temperature 39 °F 41 °F 29 °F (1988)
Degree Days  
Heating Degree Days 17    
Month to date heating degree days 17  
Since 1 July heating degree days 2541  
Cooling Degree Days 0    
Month to date cooling degree days 0  
Year to date cooling degree days 6  
Moisture  
Dew Point 36 °F    
Average Humidity 59    
Maximum Humidity 89    
Minimum Humidity 29    
Precipitation  
Precipitation 0.09 in 0.02 in 0.88 in (1982)
Month to date precipitation 0.09 0.02  
Year to date precipitation 2.18 4.44  
Since 1 July precipitation 3.79  
Snow  
Snow 0.00 in - 0.00 in ()
Month to date snowfall  
Since 1 July snowfall 0.0  
Snow Depth 0.00 in    
Sea Level Pressure  
Sea Level Pressure 29.94 in    
Wind  
Wind Speed 16 mph (WSW)    
Max Wind Speed 26 mph    
Max Gust Speed 33 mph    
Visibility 10 miles    
Events Rain    
T = Trace of Precipitation, MM = Missing Value Source: NWS Daily Summary

Daily Weather History Graph

Daily Weather History Graph

Search for Another Location

Airport or City:

Trip Planner

Search our weather history database for the weather conditions in past years. The results will help you decide how hot, cold, wet, or windy it might be!

Date:

Astronomy

Apr. 01, 2014 Rise Set
Actual Time 6:39 AM PDT 7:14 PM PDT
Civil Twilight 6:14 AM PDT 7:39 PM PDT
Nautical Twilight 5:44 AM PDT 8:09 PM PDT
Astronomical Twilight 5:14 AM PDT 8:40 PM PDT
Moon 7:50 AM PDT (4/1) 9:35 PM PDT (4/1)
Length of Visible Light 13h 25m
Length of Day
12h 34m
Waxing Crescent, 5% of the Moon is Illuminated
Apr 1
Waxing Crescent
Apr 7
First Quarter
Apr 15
Full
Apr 22
Last Quarter
Apr 28
New

Hourly Weather History & Observations

Time (PDT) Temp. Windchill Dew Point Humidity Pressure Visibility Wind Dir Wind Speed Gust Speed Precip Events Conditions
12:56 AM 45.0 °F 38.5 °F 39.9 °F 82% 29.93 in 10.0 mi WSW 13.8 mph - 0.00 in Rain Light Rain
1:56 AM 43.0 °F 37.7 °F 39.9 °F 89% 29.91 in 10.0 mi West 9.2 mph - 0.03 in   Overcast
2:31 AM 44.6 °F 36.9 °F 39.2 °F 81% 29.91 in 7.0 mi West 18.4 mph - 0.00 in Rain Light Rain
2:56 AM 43.0 °F 36.4 °F 39.9 °F 89% 29.91 in 10.0 mi West 12.7 mph - 0.02 in   Overcast
3:56 AM 43.0 °F 34.5 °F 37.0 °F 80% 29.91 in 10.0 mi West 19.6 mph - 0.00 in Rain Light Rain
4:13 AM 42.8 °F 35.8 °F 37.4 °F 81% 29.91 in 10.0 mi West 13.8 mph - 0.00 in Rain Light Rain
4:56 AM 42.1 °F 33.6 °F 36.0 °F 79% 29.92 in 10.0 mi WSW 18.4 mph - 0.01 in   Overcast
5:56 AM 39.9 °F 32.1 °F 35.1 °F 83% 29.94 in 10.0 mi WSW 13.8 mph - N/A   Scattered Clouds
6:56 AM 39.9 °F 32.9 °F 33.1 °F 77% 29.94 in 10.0 mi WSW 11.5 mph - N/A   Clear
7:56 AM 43.0 °F 35.7 °F 34.0 °F 71% 29.96 in 10.0 mi West 15.0 mph - N/A   Clear
8:56 AM 46.9 °F - 36.0 °F 66% 29.97 in 10.0 mi West 19.6 mph - N/A   Clear
9:56 AM 48.9 °F - 33.1 °F 54% 29.98 in 10.0 mi West 19.6 mph - N/A   Clear
10:56 AM 51.1 °F - 30.0 °F 44% 29.98 in 10.0 mi West 17.3 mph 25.3 mph N/A   Clear
11:56 AM 54.0 °F - 28.0 °F 37% 29.97 in 10.0 mi West 17.3 mph 25.3 mph N/A   Clear
12:56 PM 53.1 °F - 23.0 °F 31% 29.96 in 10.0 mi WSW 16.1 mph - N/A   Mostly Cloudy
1:56 PM 51.1 °F - 28.9 °F 43% 29.95 in 10.0 mi West 16.1 mph - N/A   Overcast
2:56 PM 50.0 °F - 36.0 °F 59% 29.94 in 10.0 mi SW 16.1 mph - 0.00 in Rain Light Rain
3:56 PM 46.0 °F 38.5 °F 39.9 °F 79% 29.94 in 10.0 mi WSW 19.6 mph - 0.01 in Rain Light Rain
4:56 PM 46.9 °F - 39.9 °F 77% 29.92 in 10.0 mi SW 16.1 mph 25.3 mph 0.02 in   Overcast
5:56 PM 46.0 °F 39.3 °F 39.0 °F 76% 29.93 in 10.0 mi SSW 16.1 mph - 0.00 in   Overcast
6:56 PM 46.0 °F 39.6 °F 37.9 °F 73% 29.92 in 10.0 mi SW 15.0 mph - 0.00 in   Overcast
7:56 PM 44.1 °F 37.7 °F 39.0 °F 82% 29.92 in 10.0 mi SSW 12.7 mph - 0.00 in   Overcast
8:56 PM 44.1 °F - 37.9 °F 79% 29.93 in 10.0 mi North - - N/A   Overcast
9:56 PM 44.1 °F 38.6 °F 37.9 °F 79% 29.93 in 10.0 mi SW 10.4 mph - N/A   Mostly Cloudy
10:56 PM 43.0 °F 36.0 °F 37.0 °F 80% 29.93 in 10.0 mi SW 13.8 mph - N/A   Clear
11:56 PM 44.1 °F 37.4 °F 37.0 °F 76% 29.92 in 10.0 mi SW 13.8 mph - N/A   Mostly Cloudy